﻿測定場所 (Monitoring sites),日付 (Measurement date),時間 (Measurement time),線量率 最大値 (max) μGy/h,線量率 最小値 (min) μGy/h,線量率 平均値 (average) μGy/h,
江戸川 (Edogawa),2012-01-22,23:01～24:00,0.132,0.116,0.126,
江戸川 (Edogawa),2012-01-22,22:01～23:00,0.131,0.121,0.126,
江戸川 (Edogawa),2012-01-22,21:01～22:00,0.135,0.119,0.126,
江戸川 (Edogawa),2012-01-22,20:01～21:00,0.133,0.119,0.126,
江戸川 (Edogawa),2012-01-22,19:01～20:00,0.132,0.119,0.126,
江戸川 (Edogawa),2012-01-22,18:01～19:00,0.135,0.120,0.126,
江戸川 (Edogawa),2012-01-22,17:01～18:00,0.133,0.119,0.126,
江戸川 (Edogawa),2012-01-22,16:01～17:00,0.132,0.120,0.126,
江戸川 (Edogawa),2012-01-22,15:01～16:00,0.136,0.120,0.126,
江戸川 (Edogawa),2012-01-22,14:01～15:00,0.131,0.120,0.126,
江戸川 (Edogawa),2012-01-22,13:01～14:00,0.135,0.122,0.127,
江戸川 (Edogawa),2012-01-22,12:01～13:00,0.136,0.122,0.128,
江戸川 (Edogawa),2012-01-22,11:01～12:00,0.136,0.121,0.128,
江戸川 (Edogawa),2012-01-22,10:01～11:00,0.134,0.122,0.127,
江戸川 (Edogawa),2012-01-22,09:01～10:00,0.134,0.121,0.128,
江戸川 (Edogawa),2012-01-22,08:01～09:00,0.135,0.123,0.128,
江戸川 (Edogawa),2012-01-22,07:01～08:00,0.135,0.120,0.126,
江戸川 (Edogawa),2012-01-22,06:01～07:00,0.132,0.118,0.126,
江戸川 (Edogawa),2012-01-22,05:01～06:00,0.131,0.118,0.124,
江戸川 (Edogawa),2012-01-22,04:01～05:00,0.133,0.121,0.127,
江戸川 (Edogawa),2012-01-22,03:01～04:00,0.137,0.123,0.129,
江戸川 (Edogawa),2012-01-22,02:01～03:00,0.139,0.124,0.130,
江戸川 (Edogawa),2012-01-22,01:01～02:00,0.135,0.123,0.129,
江戸川 (Edogawa),2012-01-22,00:01～01:00,0.138,0.122,0.130,
江戸川 (Edogawa),2012-01-21,23:01～24:00,0.139,0.121,0.131,
江戸川 (Edogawa),2012-01-21,22:01～23:00,0.139,0.125,0.132,
江戸川 (Edogawa),2012-01-21,21:01～22:00,0.136,0.122,0.130,
江戸川 (Edogawa),2012-01-21,20:01～21:00,0.137,0.123,0.130,
江戸川 (Edogawa),2012-01-21,19:01～20:00,0.136,0.125,0.130,
江戸川 (Edogawa),2012-01-21,18:01～19:00,0.136,0.124,0.129,
江戸川 (Edogawa),2012-01-21,17:01～18:00,0.136,0.122,0.128,
江戸川 (Edogawa),2012-01-21,16:01～17:00,0.135,0.121,0.129,
江戸川 (Edogawa),2012-01-21,15:01～16:00,0.137,0.123,0.129,
江戸川 (Edogawa),2012-01-21,14:01～15:00,0.135,0.120,0.129,
江戸川 (Edogawa),2012-01-21,13:01～14:00,0.132,0.121,0.127,
江戸川 (Edogawa),2012-01-21,12:01～13:00,0.135,0.122,0.129,
江戸川 (Edogawa),2012-01-21,11:01～12:00,0.134,0.121,0.128,
江戸川 (Edogawa),2012-01-21,10:01～11:00,0.135,0.122,0.127,
江戸川 (Edogawa),2012-01-21,09:01～10:00,0.134,0.123,0.128,
江戸川 (Edogawa),2012-01-21,08:01～09:00,0.132,0.119,0.127,
江戸川 (Edogawa),2012-01-21,07:01～08:00,0.135,0.121,0.127,
江戸川 (Edogawa),2012-01-21,06:01～07:00,0.132,0.119,0.126,
江戸川 (Edogawa),2012-01-21,05:01～06:00,0.132,0.121,0.127,
江戸川 (Edogawa),2012-01-21,04:01～05:00,0.133,0.119,0.126,
江戸川 (Edogawa),2012-01-21,03:01～04:00,0.134,0.119,0.127,
江戸川 (Edogawa),2012-01-21,02:01～03:00,0.134,0.121,0.126,
江戸川 (Edogawa),2012-01-21,01:01～02:00,0.134,0.119,0.126,
江戸川 (Edogawa),2012-01-21,00:01～01:00,0.132,0.119,0.126,
江戸川 (Edogawa),2012-01-20,23:01～24:00,0.134,0.119,0.126,
江戸川 (Edogawa),2012-01-20,22:01～23:00,0.134,0.120,0.127,
江戸川 (Edogawa),2012-01-20,21:01～22:00,0.132,0.120,0.127,
江戸川 (Edogawa),2012-01-20,20:01～21:00,0.137,0.121,0.127,
江戸川 (Edogawa),2012-01-20,19:01～20:00,0.134,0.121,0.127,
江戸川 (Edogawa),2012-01-20,18:01～19:00,0.133,0.120,0.127,
江戸川 (Edogawa),2012-01-20,17:01～18:00,0.138,0.121,0.128,
江戸川 (Edogawa),2012-01-20,16:01～17:00,0.137,0.123,0.129,
江戸川 (Edogawa),2012-01-20,15:01～16:00,0.137,0.121,0.129,
江戸川 (Edogawa),2012-01-20,14:01～15:00,0.139,0.124,0.131,
江戸川 (Edogawa),2012-01-20,13:01～14:00,0.137,0.123,0.132,
江戸川 (Edogawa),2012-01-20,12:01～13:00,0.137,0.125,0.131,
江戸川 (Edogawa),2012-01-20,11:01～12:00,0.137,0.124,0.131,
江戸川 (Edogawa),2012-01-20,10:01～11:00,0.140,0.125,0.131,
江戸川 (Edogawa),2012-01-20,09:01～10:00,0.137,0.122,0.130,
江戸川 (Edogawa),2012-01-20,08:01～09:00,0.138,0.124,0.131,
江戸川 (Edogawa),2012-01-20,07:01～08:00,0.141,0.122,0.132,
江戸川 (Edogawa),2012-01-20,06:01～07:00,0.143,0.126,0.134,
江戸川 (Edogawa),2012-01-20,05:01～06:00,0.140,0.125,0.133,
江戸川 (Edogawa),2012-01-20,04:01～05:00,0.139,0.123,0.132,
江戸川 (Edogawa),2012-01-20,03:01～04:00,0.139,0.126,0.131,
江戸川 (Edogawa),2012-01-20,02:01～03:00,0.141,0.125,0.134,
江戸川 (Edogawa),2012-01-20,01:01～02:00,0.141,0.126,0.135,
江戸川 (Edogawa),2012-01-20,00:01～01:00,0.142,0.126,0.134,
江戸川 (Edogawa),2012-01-19,23:01～24:00,0.138,0.125,0.132,
江戸川 (Edogawa),2012-01-19,22:01～23:00,0.140,0.124,0.132,
江戸川 (Edogawa),2012-01-19,21:01～22:00,0.137,0.121,0.131,
江戸川 (Edogawa),2012-01-19,20:01～21:00,0.138,0.123,0.131,
江戸川 (Edogawa),2012-01-19,19:01～20:00,0.139,0.127,0.132,
江戸川 (Edogawa),2012-01-19,18:01～19:00,0.139,0.123,0.131,
江戸川 (Edogawa),2012-01-19,17:01～18:00,0.136,0.124,0.131,
江戸川 (Edogawa),2012-01-19,16:01～17:00,0.139,0.125,0.131,
江戸川 (Edogawa),2012-01-19,15:01～16:00,0.138,0.126,0.132,
江戸川 (Edogawa),2012-01-19,14:01～15:00,0.139,0.127,0.132,
江戸川 (Edogawa),2012-01-19,13:01～14:00,0.140,0.127,0.132,
江戸川 (Edogawa),2012-01-19,12:01～13:00,0.138,0.124,0.132,
江戸川 (Edogawa),2012-01-19,11:01～12:00,0.144,0.126,0.133,
江戸川 (Edogawa),2012-01-19,10:01～11:00,0.139,0.126,0.132,
江戸川 (Edogawa),2012-01-19,09:01～10:00,0.141,0.126,0.132,
江戸川 (Edogawa),2012-01-19,08:01～09:00,0.136,0.124,0.131,
江戸川 (Edogawa),2012-01-19,07:01～08:00,0.139,0.126,0.132,
江戸川 (Edogawa),2012-01-19,06:01～07:00,0.136,0.126,0.131,
江戸川 (Edogawa),2012-01-19,05:01～06:00,0.138,0.125,0.132,
江戸川 (Edogawa),2012-01-19,04:01～05:00,0.138,0.124,0.132,
江戸川 (Edogawa),2012-01-19,03:01～04:00,0.138,0.126,0.131,
江戸川 (Edogawa),2012-01-19,02:01～03:00,0.139,0.125,0.132,
江戸川 (Edogawa),2012-01-19,01:01～02:00,0.139,0.123,0.131,
江戸川 (Edogawa),2012-01-19,00:01～01:00,0.137,0.126,0.132,
江戸川 (Edogawa),2012-01-18,23:01～24:00,0.139,0.126,0.132,
江戸川 (Edogawa),2012-01-18,22:01～23:00,0.145,0.125,0.132,
江戸川 (Edogawa),2012-01-18,21:01～22:00,0.139,0.124,0.131,
江戸川 (Edogawa),2012-01-18,20:01～21:00,0.138,0.124,0.131,
江戸川 (Edogawa),2012-01-18,19:01～20:00,0.137,0.128,0.132,
江戸川 (Edogawa),2012-01-18,18:01～19:00,0.141,0.123,0.131,
江戸川 (Edogawa),2012-01-18,17:01～18:00,0.139,0.123,0.130,
江戸川 (Edogawa),2012-01-18,16:01～17:00,0.138,0.125,0.131,
江戸川 (Edogawa),2012-01-18,15:01～16:00,0.139,0.126,0.132,
江戸川 (Edogawa),2012-01-18,14:01～15:00,0.140,0.127,0.133,
江戸川 (Edogawa),2012-01-18,13:01～14:00,0.140,0.129,0.134,
江戸川 (Edogawa),2012-01-18,12:01～13:00,0.139,0.127,0.134,
江戸川 (Edogawa),2012-01-18,11:01～12:00,0.142,0.126,0.134,
江戸川 (Edogawa),2012-01-18,10:01～11:00,0.139,0.125,0.132,
江戸川 (Edogawa),2012-01-18,09:01～10:00,0.138,0.125,0.131,
江戸川 (Edogawa),2012-01-18,08:01～09:00,0.140,0.121,0.131,
江戸川 (Edogawa),2012-01-18,07:01～08:00,0.140,0.125,0.131,
江戸川 (Edogawa),2012-01-18,06:01～07:00,0.138,0.126,0.131,
江戸川 (Edogawa),2012-01-18,05:01～06:00,0.137,0.123,0.130,
江戸川 (Edogawa),2012-01-18,04:01～05:00,0.136,0.126,0.131,
江戸川 (Edogawa),2012-01-18,03:01～04:00,0.139,0.126,0.130,
江戸川 (Edogawa),2012-01-18,02:01～03:00,0.142,0.123,0.131,
江戸川 (Edogawa),2012-01-18,01:01～02:00,0.139,0.125,0.131,
江戸川 (Edogawa),2012-01-18,00:01～01:00,0.136,0.121,0.129,
江戸川 (Edogawa),2012-01-17,23:01～24:00,0.138,0.124,0.131,
江戸川 (Edogawa),2012-01-17,22:01～23:00,0.137,0.123,0.130,
江戸川 (Edogawa),2012-01-17,21:01～22:00,0.138,0.124,0.131,
江戸川 (Edogawa),2012-01-17,20:01～21:00,0.137,0.123,0.130,
江戸川 (Edogawa),2012-01-17,19:01～20:00,0.137,0.120,0.130,
江戸川 (Edogawa),2012-01-17,18:01～19:00,0.137,0.125,0.131,
江戸川 (Edogawa),2012-01-17,17:01～18:00,0.139,0.124,0.131,
江戸川 (Edogawa),2012-01-17,16:01～17:00,0.137,0.125,0.132,
江戸川 (Edogawa),2012-01-17,15:01～16:00,0.139,0.127,0.133,
江戸川 (Edogawa),2012-01-17,14:01～15:00,0.146,0.126,0.134,
江戸川 (Edogawa),2012-01-17,13:01～14:00,0.141,0.126,0.132,
江戸川 (Edogawa),2012-01-17,12:01～13:00,0.139,0.123,0.132,
江戸川 (Edogawa),2012-01-17,11:01～12:00,0.141,0.126,0.132,
江戸川 (Edogawa),2012-01-17,10:01～11:00,0.140,0.123,0.132,
江戸川 (Edogawa),2012-01-17,09:01～10:00,0.139,0.123,0.130,
江戸川 (Edogawa),2012-01-17,08:01～09:00,0.141,0.124,0.131,
江戸川 (Edogawa),2012-01-17,07:01～08:00,0.137,0.125,0.130,
江戸川 (Edogawa),2012-01-17,06:01～07:00,0.137,0.123,0.130,
江戸川 (Edogawa),2012-01-17,05:01～06:00,0.139,0.125,0.132,
江戸川 (Edogawa),2012-01-17,04:01～05:00,0.140,0.122,0.130,
江戸川 (Edogawa),2012-01-17,03:01～04:00,0.138,0.124,0.131,
江戸川 (Edogawa),2012-01-17,02:01～03:00,0.138,0.121,0.130,
江戸川 (Edogawa),2012-01-17,01:01～02:00,0.137,0.124,0.131,
江戸川 (Edogawa),2012-01-17,00:01～01:00,0.138,0.124,0.130,
江戸川 (Edogawa),2012-01-16,23:01～24:00,0.136,0.126,0.131,
江戸川 (Edogawa),2012-01-16,22:01～23:00,0.138,0.123,0.131,
江戸川 (Edogawa),2012-01-16,21:01～22:00,0.139,0.124,0.131,
江戸川 (Edogawa),2012-01-16,20:01～21:00,0.137,0.122,0.131,
江戸川 (Edogawa),2012-01-16,19:01～20:00,0.142,0.121,0.131,
江戸川 (Edogawa),2012-01-16,18:01～19:00,0.138,0.124,0.131,
江戸川 (Edogawa),2012-01-16,17:01～18:00,0.137,0.125,0.131,
江戸川 (Edogawa),2012-01-16,16:01～17:00,0.138,0.122,0.131,
江戸川 (Edogawa),2012-01-16,15:01～16:00,0.141,0.123,0.131,
江戸川 (Edogawa),2012-01-16,14:01～15:00,0.141,0.124,0.132,
江戸川 (Edogawa),2012-01-16,13:01～14:00,0.138,0.126,0.132,
江戸川 (Edogawa),2012-01-16,12:01～13:00,0.140,0.124,0.132,
江戸川 (Edogawa),2012-01-16,11:01～12:00,0.138,0.126,0.132,
江戸川 (Edogawa),2012-01-16,10:01～11:00,0.138,0.122,0.132,
江戸川 (Edogawa),2012-01-16,09:01～10:00,0.140,0.125,0.132,
江戸川 (Edogawa),2012-01-16,08:01～09:00,0.137,0.124,0.131,
江戸川 (Edogawa),2012-01-16,07:01～08:00,0.136,0.126,0.131,
江戸川 (Edogawa),2012-01-16,06:01～07:00,0.138,0.124,0.132,
江戸川 (Edogawa),2012-01-16,05:01～06:00,0.139,0.124,0.132,
江戸川 (Edogawa),2012-01-16,04:01～05:00,0.137,0.125,0.132,
江戸川 (Edogawa),2012-01-16,03:01～04:00,0.137,0.127,0.132,
江戸川 (Edogawa),2012-01-16,02:01～03:00,0.139,0.123,0.132,
江戸川 (Edogawa),2012-01-16,01:01～02:00,0.140,0.125,0.132,
江戸川 (Edogawa),2012-01-16,00:01～01:00,0.137,0.124,0.131,
